Year,Month,Day,Hour,Minute,Value (Times are PST for temperature in C)
2017,05,30,00,00,17.00
2017,05,30,00,01,16.90
2017,05,30,00,02,16.90
2017,05,30,00,03,16.90
2017,05,30,00,04,16.90
2017,05,30,00,05,16.90
2017,05,30,00,06,16.90
2017,05,30,00,07,16.90
2017,05,30,00,08,16.90
2017,05,30,00,09,16.80
2017,05,30,00,10,16.80
2017,05,30,00,11,16.80
2017,05,30,00,12,16.80
2017,05,30,00,13,16.80
2017,05,30,00,14,16.80
2017,05,30,00,15,16.80
2017,05,30,00,16,16.80
2017,05,30,00,17,16.80
2017,05,30,00,18,16.80
2017,05,30,00,19,16.80
2017,05,30,00,20,16.80
2017,05,30,00,21,16.80
2017,05,30,00,22,16.80
2017,05,30,00,23,16.80
2017,05,30,00,24,16.90
2017,05,30,00,25,16.90
2017,05,30,00,26,16.90
2017,05,30,00,27,16.90
2017,05,30,00,28,16.90
2017,05,30,00,29,16.90
2017,05,30,00,30,16.90
2017,05,30,00,31,16.80
2017,05,30,00,32,16.80
2017,05,30,00,33,16.80
2017,05,30,00,34,16.80
2017,05,30,00,35,16.80
2017,05,30,00,36,16.80
2017,05,30,00,37,16.70
2017,05,30,00,38,16.70
2017,05,30,00,39,16.70
2017,05,30,00,40,16.70
2017,05,30,00,41,16.70
2017,05,30,00,42,16.70
2017,05,30,00,43,16.70
2017,05,30,00,44,16.70
2017,05,30,00,45,16.70
2017,05,30,00,46,16.70
2017,05,30,00,47,16.70
2017,05,30,00,48,16.70
2017,05,30,00,49,16.60
2017,05,30,00,50,16.60
2017,05,30,00,51,16.60
2017,05,30,00,52,16.60
2017,05,30,00,53,16.60
2017,05,30,00,54,16.60
2017,05,30,00,55,16.60
2017,05,30,00,56,16.60
2017,05,30,00,57,16.60
2017,05,30,00,58,16.50
2017,05,30,00,59,16.50
2017,05,30,01,00,16.50
2017,05,30,01,01,16.50
2017,05,30,01,02,16.50
2017,05,30,01,03,16.50
2017,05,30,01,04,16.40
2017,05,30,01,05,16.40
2017,05,30,01,06,16.40
2017,05,30,01,07,16.40
2017,05,30,01,08,16.40
2017,05,30,01,09,16.40
2017,05,30,01,10,16.40
2017,05,30,01,11,16.40
2017,05,30,01,12,16.30
2017,05,30,01,13,16.30
2017,05,30,01,14,16.30
2017,05,30,01,15,16.30
2017,05,30,01,16,16.30
2017,05,30,01,17,16.30
2017,05,30,01,18,16.30
2017,05,30,01,19,16.30
2017,05,30,01,20,16.20
2017,05,30,01,21,16.20
2017,05,30,01,22,16.20
2017,05,30,01,23,16.20
2017,05,30,01,24,16.20
2017,05,30,01,25,16.20
2017,05,30,01,26,16.20
2017,05,30,01,27,16.10
2017,05,30,01,28,16.10
2017,05,30,01,29,16.10
2017,05,30,01,30,16.10
2017,05,30,01,31,16.10
2017,05,30,01,32,16.10
2017,05,30,01,33,16.00
2017,05,30,01,34,16.00
2017,05,30,01,35,16.00
2017,05,30,01,36,16.00
2017,05,30,01,37,15.90
2017,05,30,01,38,15.90
2017,05,30,01,39,15.90
2017,05,30,01,40,15.90
2017,05,30,01,41,15.90
2017,05,30,01,42,15.90
2017,05,30,01,43,15.90
2017,05,30,01,44,15.90
2017,05,30,01,45,15.80
2017,05,30,01,46,15.80
2017,05,30,01,47,15.80
2017,05,30,01,48,15.80
2017,05,30,01,49,15.80
2017,05,30,01,50,15.80
2017,05,30,01,51,15.80
2017,05,30,01,52,15.70
2017,05,30,01,53,15.70
2017,05,30,01,54,15.70
2017,05,30,01,55,15.70
2017,05,30,01,56,15.70
2017,05,30,01,57,15.70
2017,05,30,01,58,15.70
2017,05,30,01,59,15.60
2017,05,30,02,00,15.60
2017,05,30,02,01,15.60
2017,05,30,02,02,15.60
2017,05,30,02,03,15.60
2017,05,30,02,04,15.60
2017,05,30,02,05,15.60
2017,05,30,02,06,15.60
2017,05,30,02,07,15.60
2017,05,30,02,08,15.60
2017,05,30,02,09,15.60
2017,05,30,02,10,15.60
2017,05,30,02,11,15.60
2017,05,30,02,12,15.50
2017,05,30,02,13,15.50
2017,05,30,02,14,15.50
2017,05,30,02,15,15.50
2017,05,30,02,16,15.40
2017,05,30,02,17,15.40
2017,05,30,02,18,15.40
2017,05,30,02,19,15.40
2017,05,30,02,20,15.40
2017,05,30,02,21,15.40
2017,05,30,02,22,15.30
2017,05,30,02,23,15.30
2017,05,30,02,24,15.30
2017,05,30,02,25,15.30
2017,05,30,02,26,15.30
2017,05,30,02,27,15.30
2017,05,30,02,28,15.30
2017,05,30,02,29,15.20
2017,05,30,02,30,15.20
2017,05,30,02,31,15.20
2017,05,30,02,32,15.20
2017,05,30,02,33,15.20
2017,05,30,02,34,15.20
2017,05,30,02,35,15.20
2017,05,30,02,36,15.20
2017,05,30,02,37,15.20
2017,05,30,02,38,15.20
2017,05,30,02,39,15.20
2017,05,30,02,40,15.20
2017,05,30,02,41,15.20
2017,05,30,02,42,15.10
2017,05,30,02,43,15.10
2017,05,30,02,44,15.10
2017,05,30,02,45,15.10
2017,05,30,02,46,15.10
2017,05,30,02,47,15.10
2017,05,30,02,48,15.10
2017,05,30,02,49,15.10
2017,05,30,02,50,15.00
2017,05,30,02,51,15.00
2017,05,30,02,52,15.00
2017,05,30,02,53,15.00
2017,05,30,02,54,15.00
2017,05,30,02,55,15.00
2017,05,30,02,56,15.00
2017,05,30,02,57,15.00
2017,05,30,02,58,15.00
2017,05,30,02,59,14.90
2017,05,30,03,00,14.90
2017,05,30,03,01,14.90
2017,05,30,03,02,14.90
2017,05,30,03,03,14.90
2017,05,30,03,04,14.90
2017,05,30,03,05,14.80
2017,05,30,03,06,14.80
2017,05,30,03,07,14.80
2017,05,30,03,08,14.80
2017,05,30,03,09,14.80
2017,05,30,03,10,14.80
2017,05,30,03,11,14.80
2017,05,30,03,12,14.80
2017,05,30,03,13,14.80
2017,05,30,03,14,14.80
2017,05,30,03,15,14.70
2017,05,30,03,16,14.70
2017,05,30,03,17,14.70
2017,05,30,03,18,14.70
2017,05,30,03,19,14.70
2017,05,30,03,20,14.70
2017,05,30,03,21,14.60
2017,05,30,03,22,14.60
2017,05,30,03,23,14.60
2017,05,30,03,24,14.60
2017,05,30,03,25,14.60
2017,05,30,03,26,14.60
2017,05,30,03,27,14.50
2017,05,30,03,28,14.50
2017,05,30,03,29,14.50
2017,05,30,03,30,14.50
2017,05,30,03,31,14.40
2017,05,30,03,32,14.40
2017,05,30,03,33,14.40
2017,05,30,03,34,14.40
2017,05,30,03,35,14.40
2017,05,30,03,36,14.40
2017,05,30,03,37,14.40
2017,05,30,03,38,14.40
2017,05,30,03,39,14.40
2017,05,30,03,40,14.40
2017,05,30,03,41,14.30
2017,05,30,03,42,14.30
2017,05,30,03,43,14.30
2017,05,30,03,44,14.30
2017,05,30,03,45,14.30
2017,05,30,03,46,14.30
2017,05,30,03,47,14.30
2017,05,30,03,48,14.30
2017,05,30,03,49,14.20
2017,05,30,03,50,14.20
2017,05,30,03,51,14.20
2017,05,30,03,52,14.20
2017,05,30,03,53,14.20
2017,05,30,03,54,14.20
2017,05,30,03,55,14.20
2017,05,30,03,56,14.20
2017,05,30,03,57,14.20
2017,05,30,03,58,14.20
2017,05,30,03,59,14.20
2017,05,30,04,00,14.10
2017,05,30,04,01,14.10
2017,05,30,04,02,14.10
2017,05,30,04,03,14.10
2017,05,30,04,04,14.10
2017,05,30,04,05,14.10
2017,05,30,04,06,14.10
2017,05,30,04,07,14.10
2017,05,30,04,08,14.10
2017,05,30,04,09,14.10
2017,05,30,04,10,14.10
2017,05,30,04,11,14.10
2017,05,30,04,12,14.00
2017,05,30,04,13,14.00
2017,05,30,04,14,14.00
2017,05,30,04,15,14.00
2017,05,30,04,16,14.00
2017,05,30,04,17,13.90
2017,05,30,04,18,13.90
2017,05,30,04,19,13.90
2017,05,30,04,20,13.90
2017,05,30,04,21,13.90
2017,05,30,04,22,13.90
2017,05,30,04,23,13.90
2017,05,30,04,24,13.90
2017,05,30,04,25,13.90
2017,05,30,04,26,13.90
2017,05,30,04,27,13.90
2017,05,30,04,28,13.90
2017,05,30,04,29,13.90
2017,05,30,04,30,13.90
2017,05,30,04,31,13.90
2017,05,30,04,32,13.80
2017,05,30,04,33,13.80
2017,05,30,04,34,13.80
2017,05,30,04,35,13.80
2017,05,30,04,36,13.80
2017,05,30,04,37,13.80
2017,05,30,04,38,13.80
2017,05,30,04,39,13.80
2017,05,30,04,40,13.80
2017,05,30,04,41,13.80
2017,05,30,04,42,13.80
2017,05,30,04,43,13.80
2017,05,30,04,44,13.80
2017,05,30,04,45,13.80
2017,05,30,04,46,13.80
2017,05,30,04,47,13.70
2017,05,30,04,48,13.70
2017,05,30,04,49,13.70
2017,05,30,04,50,13.70
2017,05,30,04,51,13.70
2017,05,30,04,52,13.70
2017,05,30,04,53,13.70
2017,05,30,04,54,13.70
2017,05,30,04,55,13.70
2017,05,30,04,56,13.70
2017,05,30,04,57,13.70
2017,05,30,04,58,13.70
2017,05,30,04,59,13.60
2017,05,30,05,00,13.60
2017,05,30,05,01,13.60
2017,05,30,05,02,13.60
2017,05,30,05,03,13.60
2017,05,30,05,04,13.60
2017,05,30,05,05,13.60
2017,05,30,05,06,13.60
2017,05,30,05,07,13.60
2017,05,30,05,08,13.60
2017,05,30,05,09,13.60
2017,05,30,05,10,13.60
2017,05,30,05,11,13.60
2017,05,30,05,12,13.60
2017,05,30,05,13,13.60
2017,05,30,05,14,13.60
2017,05,30,05,15,13.60
2017,05,30,05,16,13.60
2017,05,30,05,17,13.50
2017,05,30,05,18,13.50
2017,05,30,05,19,13.50
2017,05,30,05,20,13.50
2017,05,30,05,21,13.50
2017,05,30,05,22,13.50
2017,05,30,05,23,13.50
2017,05,30,05,24,13.50
2017,05,30,05,25,13.50
2017,05,30,05,26,13.50
2017,05,30,05,27,13.50
2017,05,30,05,28,13.50
2017,05,30,05,29,13.60
2017,05,30,05,30,13.50
2017,05,30,05,31,13.50
2017,05,30,05,32,13.50
2017,05,30,05,33,13.50
2017,05,30,05,34,13.50
2017,05,30,05,35,13.50
2017,05,30,05,36,13.40
2017,05,30,05,37,13.40
2017,05,30,05,38,13.40
2017,05,30,05,39,13.40
2017,05,30,05,40,13.40
2017,05,30,05,41,13.40
2017,05,30,05,42,13.40
2017,05,30,05,43,13.40
2017,05,30,05,44,13.40
2017,05,30,05,45,13.30
2017,05,30,05,46,13.30
2017,05,30,05,47,13.30
2017,05,30,05,48,13.30
2017,05,30,05,49,13.30
2017,05,30,05,50,13.30
2017,05,30,05,51,13.30
2017,05,30,05,52,13.30
2017,05,30,05,53,13.30
2017,05,30,05,54,13.30
2017,05,30,05,55,13.30
2017,05,30,05,56,13.30
2017,05,30,05,57,13.30
2017,05,30,05,58,13.30
2017,05,30,05,59,13.30
2017,05,30,06,00,13.30
2017,05,30,06,01,13.30
2017,05,30,06,02,13.30
2017,05,30,06,03,13.30
2017,05,30,06,04,13.30
2017,05,30,06,05,13.30
2017,05,30,06,06,13.30
2017,05,30,06,07,13.30
2017,05,30,06,08,13.30
2017,05,30,06,09,13.40
2017,05,30,06,10,13.40
2017,05,30,06,11,13.40
2017,05,30,06,12,13.40
2017,05,30,06,13,13.40
2017,05,30,06,14,13.40
2017,05,30,06,15,13.40
2017,05,30,06,16,13.40
2017,05,30,06,17,13.40
2017,05,30,06,18,13.40
2017,05,30,06,19,13.50
2017,05,30,06,20,13.50
2017,05,30,06,21,13.50
2017,05,30,06,22,13.50
2017,05,30,06,23,13.50
2017,05,30,06,24,13.50
2017,05,30,06,25,13.50
2017,05,30,06,26,13.60
2017,05,30,06,27,13.60
2017,05,30,06,28,13.60
2017,05,30,06,29,13.60
2017,05,30,06,30,13.60
2017,05,30,06,31,13.60
2017,05,30,06,32,13.60
2017,05,30,06,33,13.60
2017,05,30,06,34,13.60
2017,05,30,06,35,13.60
2017,05,30,06,36,13.60
2017,05,30,06,37,13.60
2017,05,30,06,38,13.60
2017,05,30,06,39,13.60
2017,05,30,06,40,13.60
2017,05,30,06,41,13.60
2017,05,30,06,42,13.60
2017,05,30,06,43,13.60
2017,05,30,06,44,13.60
2017,05,30,06,45,13.60
2017,05,30,06,46,13.60
2017,05,30,06,47,13.70
2017,05,30,06,48,13.70
2017,05,30,06,49,13.70
2017,05,30,06,50,13.70
2017,05,30,06,51,13.70
2017,05,30,06,52,13.70
2017,05,30,06,53,13.80
2017,05,30,06,54,13.80
2017,05,30,06,55,13.80
2017,05,30,06,56,13.80
2017,05,30,06,57,13.80
2017,05,30,06,58,13.80
2017,05,30,06,59,13.90
2017,05,30,07,00,13.90
2017,05,30,07,01,13.90
2017,05,30,07,02,13.90
2017,05,30,07,03,14.00
2017,05,30,07,04,14.00
2017,05,30,07,05,14.00
2017,05,30,07,06,14.10
2017,05,30,07,07,14.10
2017,05,30,07,08,14.10
2017,05,30,07,09,14.10
2017,05,30,07,10,14.10
2017,05,30,07,11,14.10
2017,05,30,07,12,14.10
2017,05,30,07,13,14.10
2017,05,30,07,14,14.10
2017,05,30,07,15,14.10
2017,05,30,07,16,14.10
2017,05,30,07,17,14.10
2017,05,30,07,18,14.20
2017,05,30,07,19,14.20
2017,05,30,07,20,14.20
2017,05,30,07,21,14.20
2017,05,30,07,22,14.20
2017,05,30,07,23,14.20
2017,05,30,07,24,14.20
2017,05,30,07,25,14.20
2017,05,30,07,26,14.20
2017,05,30,07,27,14.30
2017,05,30,07,28,14.30
2017,05,30,07,29,14.30
2017,05,30,07,30,14.30
2017,05,30,07,31,14.30
2017,05,30,07,32,14.30
2017,05,30,07,33,14.30
2017,05,30,07,34,14.30
2017,05,30,07,35,14.30
2017,05,30,07,36,14.30
2017,05,30,07,37,14.30
2017,05,30,07,38,14.30
2017,05,30,07,39,14.30
2017,05,30,07,40,14.30
2017,05,30,07,41,14.30
2017,05,30,07,42,14.40
2017,05,30,07,43,14.40
2017,05,30,07,44,14.40
2017,05,30,07,45,14.40
2017,05,30,07,46,14.40
2017,05,30,07,47,14.40
2017,05,30,07,48,14.40
2017,05,30,07,49,14.40
2017,05,30,07,50,14.40
2017,05,30,07,51,14.50
2017,05,30,07,52,14.50
2017,05,30,07,53,14.50
2017,05,30,07,54,14.50
2017,05,30,07,55,14.50
2017,05,30,07,56,14.50
2017,05,30,07,57,14.50
2017,05,30,07,58,14.60
2017,05,30,07,59,14.60
2017,05,30,08,00,14.50
2017,05,30,08,01,14.50
2017,05,30,08,02,14.50
2017,05,30,08,03,14.50
2017,05,30,08,04,14.50
2017,05,30,08,05,14.50
2017,05,30,08,06,14.50
2017,05,30,08,07,14.50
2017,05,30,08,08,14.50
2017,05,30,08,09,14.40
2017,05,30,08,10,14.40
2017,05,30,08,11,14.50
2017,05,30,08,12,14.50
2017,05,30,08,13,14.50
2017,05,30,08,14,14.50
2017,05,30,08,15,14.50
2017,05,30,08,16,14.50
2017,05,30,08,17,14.60
2017,05,30,08,18,14.60
2017,05,30,08,19,14.60
2017,05,30,08,20,14.70
2017,05,30,08,21,14.70
2017,05,30,08,22,14.70
2017,05,30,08,23,14.70
2017,05,30,08,24,14.70
2017,05,30,08,25,14.70
2017,05,30,08,26,14.70
2017,05,30,08,27,14.70
2017,05,30,08,28,14.70
2017,05,30,08,29,14.70
2017,05,30,08,30,14.70
2017,05,30,08,31,14.70
2017,05,30,08,32,14.70
2017,05,30,08,33,14.70
2017,05,30,08,34,14.70
2017,05,30,08,35,14.70
2017,05,30,08,36,14.70
2017,05,30,08,37,14.60
2017,05,30,08,38,14.60
2017,05,30,08,39,14.60
2017,05,30,08,40,14.60
2017,05,30,08,41,14.70
2017,05,30,08,42,14.70
2017,05,30,08,43,14.70
2017,05,30,08,44,14.70
2017,05,30,08,45,14.70
2017,05,30,08,46,14.70
2017,05,30,08,47,14.70
2017,05,30,08,48,14.80
2017,05,30,08,49,14.80
2017,05,30,08,50,14.80
2017,05,30,08,51,14.80
2017,05,30,08,52,14.80
2017,05,30,08,53,14.80
2017,05,30,08,54,14.80
2017,05,30,08,55,14.80
2017,05,30,08,56,14.80
2017,05,30,08,57,14.90
2017,05,30,08,58,14.90
2017,05,30,08,59,14.90
2017,05,30,09,00,14.90
2017,05,30,09,01,15.00
2017,05,30,09,02,15.00
2017,05,30,09,03,15.00
2017,05,30,09,04,15.00
2017,05,30,09,05,15.10
2017,05,30,09,06,15.10
2017,05,30,09,07,15.20
2017,05,30,09,08,15.20
2017,05,30,09,09,15.30
2017,05,30,09,10,15.40
2017,05,30,09,11,15.40
2017,05,30,09,12,15.40
2017,05,30,09,13,15.40
2017,05,30,09,14,15.40
2017,05,30,09,15,15.50
2017,05,30,09,16,15.50
2017,05,30,09,17,15.50
2017,05,30,09,18,15.60
2017,05,30,09,19,15.60
2017,05,30,09,20,15.60
2017,05,30,09,21,15.60
2017,05,30,09,22,15.60
2017,05,30,09,23,15.70
2017,05,30,09,24,15.70
2017,05,30,09,25,15.70
2017,05,30,09,26,15.80
2017,05,30,09,27,15.80
2017,05,30,09,28,15.80
2017,05,30,09,29,15.80
2017,05,30,09,30,15.80
2017,05,30,09,31,15.80
2017,05,30,09,32,15.80
2017,05,30,09,33,15.80
2017,05,30,09,34,15.80
2017,05,30,09,35,15.80
2017,05,30,09,36,15.80
2017,05,30,09,37,15.80
2017,05,30,09,38,15.90
2017,05,30,09,39,15.90
2017,05,30,09,40,15.90
2017,05,30,09,41,15.90
2017,05,30,09,42,15.90
2017,05,30,09,43,15.90
2017,05,30,09,44,15.90
2017,05,30,09,45,15.90
2017,05,30,09,46,15.90
2017,05,30,09,47,15.80
2017,05,30,09,48,15.80
2017,05,30,09,49,15.80
2017,05,30,09,50,15.80
2017,05,30,09,51,15.80
2017,05,30,09,52,15.80
2017,05,30,09,53,15.70
2017,05,30,09,54,15.70
2017,05,30,09,55,15.60
2017,05,30,09,56,15.50
2017,05,30,09,57,15.50
2017,05,30,09,58,15.40
2017,05,30,09,59,15.40
2017,05,30,10,00,15.40
2017,05,30,10,01,15.40
2017,05,30,10,02,15.40
2017,05,30,10,03,15.40
2017,05,30,10,04,15.40
2017,05,30,10,05,15.40
2017,05,30,10,06,15.40
2017,05,30,10,07,15.40
2017,05,30,10,08,15.40
2017,05,30,10,09,15.40
2017,05,30,10,10,15.40
2017,05,30,10,11,15.40
2017,05,30,10,12,15.40
2017,05,30,10,13,15.30
2017,05,30,10,14,15.20
2017,05,30,10,15,15.20
2017,05,30,10,16,15.20
2017,05,30,10,17,15.10
2017,05,30,10,18,15.10
2017,05,30,10,19,15.00
2017,05,30,10,20,15.00
2017,05,30,10,21,14.90
2017,05,30,10,22,14.90
2017,05,30,10,23,14.90
2017,05,30,10,24,14.90
2017,05,30,10,25,14.90
2017,05,30,10,26,14.90
2017,05,30,10,27,14.90
2017,05,30,10,28,14.90
2017,05,30,10,29,14.90
2017,05,30,10,30,14.90
2017,05,30,10,31,14.90
2017,05,30,10,32,14.90
2017,05,30,10,33,14.90
2017,05,30,10,34,14.90
2017,05,30,10,35,14.90
2017,05,30,10,36,14.90
2017,05,30,10,37,14.90
2017,05,30,10,38,14.90
2017,05,30,10,39,14.90
2017,05,30,10,40,15.00
2017,05,30,10,41,15.00
2017,05,30,10,42,15.10
2017,05,30,10,43,15.10
2017,05,30,10,44,15.20
2017,05,30,10,45,15.20
2017,05,30,10,46,15.20
2017,05,30,10,47,15.30
2017,05,30,10,48,15.30
2017,05,30,10,49,15.30
2017,05,30,10,50,15.40
2017,05,30,10,51,15.40
2017,05,30,10,52,15.40
2017,05,30,10,53,15.50
2017,05,30,10,54,15.50
2017,05,30,10,55,15.50
2017,05,30,10,56,15.60
2017,05,30,10,57,15.60
2017,05,30,10,58,15.70
2017,05,30,10,59,15.70
2017,05,30,11,00,15.70
2017,05,30,11,01,15.70
2017,05,30,11,02,15.70
2017,05,30,11,03,15.70
2017,05,30,11,04,15.70
2017,05,30,11,05,15.70
2017,05,30,11,06,15.70
2017,05,30,11,07,15.80
2017,05,30,11,08,15.80
2017,05,30,11,09,15.80
2017,05,30,11,10,15.80
2017,05,30,11,11,15.80
2017,05,30,11,12,15.80
2017,05,30,11,13,15.80
2017,05,30,11,14,15.80
2017,05,30,11,15,15.80
2017,05,30,11,16,15.80
2017,05,30,11,17,15.70
2017,05,30,11,18,15.70
2017,05,30,11,19,15.70
2017,05,30,11,20,15.70
2017,05,30,11,21,15.60
2017,05,30,11,22,15.60
2017,05,30,11,23,15.50
2017,05,30,11,24,15.40
2017,05,30,11,25,15.40
2017,05,30,11,26,15.40
2017,05,30,11,27,15.30
2017,05,30,11,28,15.30
2017,05,30,11,29,15.30
2017,05,30,11,30,15.30
2017,05,30,11,31,15.30
2017,05,30,11,32,15.20
2017,05,30,11,33,15.20
2017,05,30,11,34,15.20
2017,05,30,11,35,15.10
2017,05,30,11,36,15.10
2017,05,30,11,37,15.10
2017,05,30,11,38,15.00
2017,05,30,11,39,15.00
2017,05,30,11,40,14.90
2017,05,30,11,41,14.90
2017,05,30,11,42,14.90
2017,05,30,11,43,14.90
2017,05,30,11,44,14.80
2017,05,30,11,45,14.80
2017,05,30,11,46,14.80
2017,05,30,11,47,14.80
2017,05,30,11,48,14.80
2017,05,30,11,49,14.80
2017,05,30,11,50,14.80
2017,05,30,11,51,14.70
2017,05,30,11,52,14.70
2017,05,30,11,53,14.70
2017,05,30,11,54,14.70
2017,05,30,11,55,14.70
2017,05,30,11,56,14.70
2017,05,30,11,57,14.70
2017,05,30,11,58,14.70
2017,05,30,11,59,14.70
2017,05,30,12,00,14.60
2017,05,30,12,01,14.60
2017,05,30,12,02,14.60
2017,05,30,12,03,14.60
2017,05,30,12,04,14.60
2017,05,30,12,05,14.60
2017,05,30,12,06,14.60
2017,05,30,12,07,14.60
2017,05,30,12,08,14.60
2017,05,30,12,09,14.60
2017,05,30,12,10,14.60
2017,05,30,12,11,14.60
2017,05,30,12,12,14.60
2017,05,30,12,13,14.60
2017,05,30,12,14,14.60
2017,05,30,12,15,14.60
2017,05,30,12,16,14.60
2017,05,30,12,17,14.60
2017,05,30,12,18,14.60
2017,05,30,12,19,14.60
2017,05,30,12,20,14.70
2017,05,30,12,21,14.70
2017,05,30,12,22,14.70
2017,05,30,12,23,14.70
2017,05,30,12,24,14.70
2017,05,30,12,25,14.80
2017,05,30,12,26,14.80
2017,05,30,12,27,14.80
2017,05,30,12,28,14.80
2017,05,30,12,29,14.80
2017,05,30,12,30,14.80
2017,05,30,12,31,14.80
2017,05,30,12,32,14.80
2017,05,30,12,33,14.80
2017,05,30,12,34,14.80
2017,05,30,12,35,14.90
2017,05,30,12,36,14.80
2017,05,30,12,37,14.80
2017,05,30,12,38,14.80
2017,05,30,12,39,14.80
2017,05,30,12,40,14.80
2017,05,30,12,41,14.90
2017,05,30,12,42,14.90
2017,05,30,12,43,14.90
2017,05,30,12,44,14.90
2017,05,30,12,45,14.90
2017,05,30,12,46,14.90
2017,05,30,12,47,14.90
2017,05,30,12,48,14.80
2017,05,30,12,49,14.80
2017,05,30,12,50,14.80
2017,05,30,12,51,14.80
2017,05,30,12,52,14.80
2017,05,30,12,53,14.70
2017,05,30,12,54,14.70
2017,05,30,12,55,14.60
2017,05,30,12,56,14.60
2017,05,30,12,57,14.60
2017,05,30,12,58,14.50
2017,05,30,12,59,14.50
2017,05,30,13,00,14.50
2017,05,30,13,01,14.50
2017,05,30,13,02,14.50
2017,05,30,13,03,14.50
2017,05,30,13,04,14.40
2017,05,30,13,05,14.40
2017,05,30,13,06,14.40
2017,05,30,13,07,14.40
2017,05,30,13,08,14.30
2017,05,30,13,09,14.30
2017,05,30,13,10,14.20
2017,05,30,13,11,14.20
2017,05,30,13,12,14.20
2017,05,30,13,13,14.20
2017,05,30,13,14,14.20
2017,05,30,13,15,14.10
2017,05,30,13,16,14.10
2017,05,30,13,17,14.10
2017,05,30,13,18,14.10
2017,05,30,13,19,14.20
2017,05,30,13,20,14.20
2017,05,30,13,21,14.20
2017,05,30,13,22,14.20
2017,05,30,13,23,14.20
2017,05,30,13,24,14.20
2017,05,30,13,25,14.20
2017,05,30,13,26,14.20
2017,05,30,13,27,14.20
2017,05,30,13,28,14.30
2017,05,30,13,29,14.30
2017,05,30,13,30,14.30
2017,05,30,13,31,14.40
2017,05,30,13,32,14.40
2017,05,30,13,33,14.50
2017,05,30,13,34,14.50
2017,05,30,13,35,14.50
2017,05,30,13,36,14.60
2017,05,30,13,37,14.60
2017,05,30,13,38,14.60
2017,05,30,13,39,14.70
2017,05,30,13,40,14.70
2017,05,30,13,41,14.70
2017,05,30,13,42,14.80
2017,05,30,13,43,14.80
2017,05,30,13,44,14.80
2017,05,30,13,45,14.80
2017,05,30,13,46,14.80
2017,05,30,13,47,14.90
2017,05,30,13,48,14.90
2017,05,30,13,49,14.90
2017,05,30,13,50,14.90
2017,05,30,13,51,14.90
2017,05,30,13,52,14.90
2017,05,30,13,53,14.90
2017,05,30,13,54,14.90
2017,05,30,13,55,14.90
2017,05,30,13,56,14.90
2017,05,30,13,57,14.90
2017,05,30,13,58,14.90
2017,05,30,13,59,14.80
2017,05,30,14,00,14.80
2017,05,30,14,01,14.80
2017,05,30,14,02,14.80
2017,05,30,14,03,14.80
2017,05,30,14,04,14.70
2017,05,30,14,05,14.70
2017,05,30,14,06,14.70
2017,05,30,14,07,14.70
2017,05,30,14,08,14.60
2017,05,30,14,09,14.60
2017,05,30,14,10,14.60
2017,05,30,14,11,14.60
2017,05,30,14,12,14.50
2017,05,30,14,13,14.50
2017,05,30,14,14,14.50
2017,05,30,14,15,14.60
2017,05,30,14,16,14.60
2017,05,30,14,17,14.60
2017,05,30,14,18,14.60
2017,05,30,14,19,14.60
2017,05,30,14,20,14.60
2017,05,30,14,21,14.60
2017,05,30,14,22,14.60
2017,05,30,14,23,14.60
2017,05,30,14,24,14.60
2017,05,30,14,25,14.60
2017,05,30,14,26,14.60
2017,05,30,14,27,14.60
2017,05,30,14,28,14.60
2017,05,30,14,29,14.60
2017,05,30,14,30,14.60
2017,05,30,14,31,14.60
2017,05,30,14,32,14.70
2017,05,30,14,33,14.70
2017,05,30,14,34,14.70
2017,05,30,14,35,14.70
2017,05,30,14,36,14.80
2017,05,30,14,37,14.80
2017,05,30,14,38,14.80
2017,05,30,14,39,14.80
2017,05,30,14,40,14.80
2017,05,30,14,41,14.90
2017,05,30,14,42,14.90
2017,05,30,14,43,14.90
2017,05,30,14,44,14.90
2017,05,30,14,45,14.90
2017,05,30,14,46,15.00
2017,05,30,14,47,15.00
2017,05,30,14,48,15.10
2017,05,30,14,49,15.10
2017,05,30,14,50,15.10
2017,05,30,14,51,15.20
2017,05,30,14,52,15.20
2017,05,30,14,53,15.20
2017,05,30,14,54,15.30
2017,05,30,14,55,15.30
2017,05,30,14,56,15.30
2017,05,30,14,57,15.40
2017,05,30,14,58,15.40
2017,05,30,14,59,15.50
2017,05,30,15,00,15.50
2017,05,30,15,01,15.50
2017,05,30,15,02,15.60
2017,05,30,15,03,15.60
2017,05,30,15,04,15.60
2017,05,30,15,05,15.70
2017,05,30,15,06,15.60
2017,05,30,15,07,15.60
2017,05,30,15,08,15.50
2017,05,30,15,09,15.50
2017,05,30,15,10,15.50
2017,05,30,15,11,15.40
2017,05,30,15,12,15.40
2017,05,30,15,13,15.40
2017,05,30,15,14,15.40
2017,05,30,15,15,15.40
2017,05,30,15,16,15.40
2017,05,30,15,17,15.40
2017,05,30,15,18,15.40
2017,05,30,15,19,15.40
2017,05,30,15,20,15.50
2017,05,30,15,21,15.50
2017,05,30,15,22,15.60
2017,05,30,15,23,15.60
2017,05,30,15,24,15.60
2017,05,30,15,25,15.70
2017,05,30,15,26,15.70
2017,05,30,15,27,15.70
2017,05,30,15,28,15.70
2017,05,30,15,29,15.70
2017,05,30,15,30,15.60
2017,05,30,15,31,15.60
2017,05,30,15,32,15.60
2017,05,30,15,33,15.60
2017,05,30,15,34,15.60
2017,05,30,15,35,15.60
2017,05,30,15,36,15.60
2017,05,30,15,37,15.50
2017,05,30,15,38,15.50
2017,05,30,15,39,15.50
2017,05,30,15,40,15.50
2017,05,30,15,41,15.50
2017,05,30,15,42,15.50
2017,05,30,15,43,15.50
2017,05,30,15,44,15.50
2017,05,30,15,45,15.50
2017,05,30,15,46,15.60
2017,05,30,15,47,15.60
2017,05,30,15,48,15.70
2017,05,30,15,49,15.70
2017,05,30,15,50,15.70
2017,05,30,15,51,15.70
2017,05,30,15,52,15.70
2017,05,30,15,53,15.70
2017,05,30,15,54,15.70
2017,05,30,15,55,15.80
2017,05,30,15,56,15.80
2017,05,30,15,57,15.70
2017,05,30,15,58,15.70
2017,05,30,15,59,15.70
2017,05,30,16,00,15.70
2017,05,30,16,01,15.70
2017,05,30,16,02,15.60
2017,05,30,16,03,15.60
2017,05,30,16,04,15.60
2017,05,30,16,05,15.60
2017,05,30,16,06,15.60
2017,05,30,16,07,15.60
2017,05,30,16,08,15.70
2017,05,30,16,09,15.70
2017,05,30,16,10,15.70
2017,05,30,16,11,15.60
2017,05,30,16,12,15.60
2017,05,30,16,13,15.70
2017,05,30,16,14,15.70
2017,05,30,16,15,15.70
2017,05,30,16,16,15.70
2017,05,30,16,17,15.80
2017,05,30,16,18,15.80
2017,05,30,16,19,15.80
2017,05,30,16,20,15.90
2017,05,30,16,21,15.90
2017,05,30,16,22,16.00
2017,05,30,16,23,16.00
2017,05,30,16,24,16.10
2017,05,30,16,25,16.10
2017,05,30,16,26,16.10
2017,05,30,16,27,16.10
2017,05,30,16,28,16.10
2017,05,30,16,29,16.10
2017,05,30,16,30,16.20
2017,05,30,16,31,16.20
2017,05,30,16,32,16.20
2017,05,30,16,33,16.20
2017,05,30,16,34,16.20
2017,05,30,16,35,16.20
2017,05,30,16,36,16.20
2017,05,30,16,37,16.20
2017,05,30,16,38,16.20
2017,05,30,16,39,16.20
2017,05,30,16,40,16.20
2017,05,30,16,41,16.20
2017,05,30,16,42,16.20
2017,05,30,16,43,16.20
2017,05,30,16,44,16.30
2017,05,30,16,45,16.30
2017,05,30,16,46,16.30
2017,05,30,16,47,16.30
2017,05,30,16,48,16.30
2017,05,30,16,49,16.30
2017,05,30,16,50,16.30
2017,05,30,16,51,16.30
2017,05,30,16,52,16.20
2017,05,30,16,53,16.20
2017,05,30,16,54,16.20
2017,05,30,16,55,16.20
2017,05,30,16,56,16.20
2017,05,30,16,57,16.20
2017,05,30,16,58,16.20
2017,05,30,16,59,16.20
2017,05,30,17,00,16.20
2017,05,30,17,01,16.20
2017,05,30,17,02,16.20
2017,05,30,17,03,16.20
2017,05,30,17,04,16.30
2017,05,30,17,05,16.30
2017,05,30,17,06,16.30
2017,05,30,17,07,16.30
2017,05,30,17,08,16.30
2017,05,30,17,09,16.30
2017,05,30,17,10,16.30
2017,05,30,17,11,16.30
2017,05,30,17,12,16.30
2017,05,30,17,13,16.30
2017,05,30,17,14,16.30
2017,05,30,17,15,16.40
2017,05,30,17,16,16.40
2017,05,30,17,17,16.30
2017,05,30,17,18,16.30
2017,05,30,17,19,16.30